Dewpoint
74 74 73 74 74 74 75 75 74 74 75 74 74 73 74 74 75 75 74 74 74 72 71 72 72 72 72 71 72 71 72 72 72 72 73 74 74 75 75 75 74 74 73 73 74 74 74 74 74 74 74 73 73 73 72 72 72 72 72 72 72 72 72 72 72 72 72 72 72 71 71 71 71 71 70 70 70 70 70 70 70 70 70 70 70
73 73 72 73 74 74 75 74 74 74 74 74 75 74 74 75 75 75 74 73 73 72 73 71 71 72 73 71 71 71 72 72 72 72 73 74 74 75 75 75 74 74 74 73 74 74 74 74 73 73 73 74 74 74 73 73 73 72 72 72 72 72 72 72 72 72 72 72 72 71 71 71 71 71 70 70 70 70 71 70 71 71 71 71 71
73 73 73 73 73 73 75 75 74 74 74 73 74 75 75 74 73 74 73 73 73 74 74 72 72 72 73 71 70 72 72 72 72 73 74 74 74 75 75 75 75 74 74 73 74 74 74 74 74 73 73 73 73 74 74 74 73 73 73 72 72 72 71 72 72 72 72 71 71 71 71 71 71 71 71 71 71 71 71 71 71 71 71 72 71
72 73 72 73 73 72 74 74 74 74 74 73 73 76 75 75 75 76 75 74 73 73 74 72 71 71 71 70 70 72 72 72 72 73 74 74 74 74 74 75 75 74 74 73 73 74 73 74 74 73 73 73 73 73 73 74 74 73 73 73 72 72 72 72 72 72 71 71 71 71 71 71 71 71 71 72 72 72 71 71 72 71 72 72 72
73 73 75 73 72 73 73 74 74 74 74 74 74 75 76 75 74 76 75 74 73 72 73 72 71 71 69 69 70 71 72 72 72 72 73 74 75 75 74 75 74 74 74 73 73 74 74 74 74 73 73 73 73 73 73 73 73 73 73 73 73 72 72 72 72 71 71 71 71 71 71 71 71 72 72 72 72 72 72 72 72 72 72 72 72
74 73 73 73 73 73 73 73 74 74 74 76 75 75 74 73 73 73 76 74 71 71 71 71 70 70 68 67 69 71 71 71 71 72 73 74 75 74 74 74 74 74 74 74 74 74 74 74 74 73 73 73 72 72 72 73 73 73 73 73 73 72 73 72 72 72 72 71 71 71 71 71 71 72 72 72 73 72 72 72 72 72 72 72 72
75 74 73 73 73 73 74 74 75 75 74 76 76 74 74 73 75 72 72 72 72 73 72 70 69 66 66 67 69 70 71 70 71 72 73 74 75 74 74 74 74 74 75 73 75 74 74 74 74 74 74 74 73 72 72 72 72 73 73 73 73 73 73 72 72 72 72 72 72 71 71 71 71 72 72 72 72 72 72 72 72 72 73 73 72
75 74 73 72 73 73 74 74 76 76 76 76 75 74 73 75 76 73 71 72 74 72 70 68 69 64 66 67 68 70 69 70 71 71 72 74 74 74 74 74 74 74 76 73 73 75 74 74 74 74 74 74 73 73 73 73 72 72 73 73 73 73 73 72 72 72 72 72 72 72 72 72 72 72 73 73 72 72 72 72 72 72 72 72 72
75 75 74 73 73 74 74 75 77 76 75 75 75 75 74 75 73 75 72 72 72 72 70 68 65 63 65 66 67 69 69 70 70 71 73 73 73 73 74 74 75 76 74 74 73 74 75 75 74 75 75 74 74 73 73 73 72 73 73 73 73 73 73 72 73 73 73 72 72 72 72 72 72 72 72 72 72 72 72 72 72 72 72 72 72
75 75 74 74 74 74 74 76 76 75 74 75 75 75 74 74 72 73 74 72 71 69 65 64 64 65 65 66 67 68 68 69 71 74 72 72 72 72 73 74 75 75 74 74 74 73 73 74 75 75 75 74 74 74 73 73 73 73 73 73 73 73 73 73 72 72 72 72 72 72 72 72 72 72 72 72 72 72 72 72 72 71 71 72 72
75 75 74 75 74 74 75 76 76 75 75 75 74 75 75 73 72 73 74 74 72 67 64 64 64 65 65 66 66 67 68 69 72 71 71 71 72 73 73 73 74 74 74 74 74 73 73 72 73 73 74 75 74 74 74 74 74 73 73 72 72 72 73 73 73 73 72 72 72 72 72 72 72 72 72 72 72 72 72 71 71 71 71 71 71
75 75 74 75 74 74 75 76 76 76 75 73 73 73 73 72 72 72 72 72 73 69 65 64 64 65 66 65 66 66 68 72 70 70 71 71 73 73 72 72 73 73 73 73 73 73 73 73 74 73 73 74 75 74 74 74 74 74 74 73 73 73 73 73 72 72 72 72 72 72 72 72 72 72 72 72 72 72 72 72 72 72 71 71 71
75 75 74 76 74 74 75 76 76 75 75 74 73 74 74 73 73 74 72 70 69 66 64 61 59 60 62 62 62 64 72 69 68 69 70 70 72 72 71 72 72 72 72 73 72 72 73 73 73 73 72 73 74 74 74 74 74 74 73 73 73 73 73 72 73 72 73 72 72 72 72 72 72 72 72 72 72 72 72 72 72 71 71 71 71
76 75 74 74 74 74 75 76 75 75 75 75 74 77 75 73 73 71 71 71 68 68 65 60 59 58 58 57 58 59 67 65 67 68 69 69 71 70 70 71 70 71 72 72 72 72 72 73 73 73 73 73 72 73 73 73 74 74 73 73 73 73 73 73 72 73 72 73 73 72 72 72 72 72 72 72 72 71 72 72 71 71 71 71 71
75 75 74 74 74 74 75 76 75 76 75 74 75 74 74 73 72 70 70 70 71 69 65 60 60 63 62 57 53 56 61 61 65 66 67 68 69 69 70 70 70 70 71 71 71 72 72 73 73 73 73 73 72 72 73 74 73 74 73 74 73 72 72 72 72 73 73 73 72 72 72 72 72 72 72 72 72 71 71 71 71 71 71 71 71
75 75 75 74 74 74 76 76 75 76 75 74 75 74 73 72 72 73 70 67 67 64 70 66 65 60 56 58 57 57 55 56 59 62 66 67 68 68 69 68 69 70 70 70 71 72 72 72 73 73 73 73 72 72 73 72 74 74 74 73 73 74 72 72 72 73 73 73 73 73 72 72 72 72 71 71 72 72 72 71 71 71 71 71 70
75 75 75 74 74 74 76 76 76 76 75 75 75 74 74 73 73 73 71 68 67 64 66 67 64 63 63 60 56 53 54 57 60 60 66 64 65 66 69 66 68 69 69 70 70 71 71 71 71 72 72 72 72 72 72 72 73 75 73 73 73 73 72 72 71 71 72 72 72 72 72 72 72 71 72 71 70 70 70 70 70 70 69 69 68
75 75 75 75 74 74 76 76 76 76 75 75 75 74 74 73 73 72 72 70 68 63 61 66 66 71 66 63 60 55 58 60 59 57 63 65 63 63 66 64 67 69 68 69 69 70 71 71 71 72 72 72 72 72 72 71 74 72 72 73 73 73 73 73 71 71 71 71 71 72 72 71 71 71 71 70 70 70 70 70 70 69 68 67 68
75 75 75 75 74 75 75 75 76 76 76 75 75 74 75 74 73 72 72 72 66 62 62 63 64 65 69 68 70 69 65 60 58 59 57 60 63 62 62 63 65 66 67 68 68 69 70 71 72 72 71 71 71 71 72 72 74 73 74 74 73 73 72 73 72 71 71 71 71 72 71 71 71 71 71 69 69 69 70 69 68 68 67 67 67
74 75 75 75 75 75 75 75 76 76 77 75 75 75 75 74 74 73 72 72 68 63 62 63 61 61 65 62 69 70 66 65 62 59 60 58 58 62 63 62 64 64 66 67 67 68 69 71 71 71 71 71 71 71 72 72 72 73 74 73 73 73 73 72 72 72 71 72 71 71 71 71 72 70 69 67 68 67 67 67 67 66 66 67 67
74 74 74 74 75 75 75 75 76 76 77 76 75 75 75 74 74 73 72 72 70 66 63 62 62 61 63 62 65 64 64 66 66 65 62 58 57 60 59 62 62 63 64 65 67 68 69 70 71 72 72 71 71 71 71 72 72 72 73 73 74 73 73 72 72 72 72 72 71 71 71 70 69 68 67 66 67 66 65 66 66 67 67 67 67
74 74 74 74 75 75 76 76 76 76 77 76 76 75 75 74 74 73 73 72 70 69 63 62 64 63 61 62 62 64 61 62 62 62 63 60 58 59 60 59 59 61 63 62 64 65 66 68 70 71 71 71 71 71 70 71 72 72 73 74 74 73 73 72 72 71 70 70 70 70 69 67 67 66 64 65 67 67 66 67 66 67 67 68 69
74 74 74 74 74 75 76 76 76 76 77 76 76 75 75 75 74 74 73 72 69 69 67 64 65 65 62 61 62 61 60 61 60 62 62 60 59 59 61 61 59 59 61 61 63 63 64 65 67 70 69 69 70 69 69 70 73 73 74 74 74 74 73 72 71 69 70 70 69 69 69 68 68 68 68 68 68 68 67 67 67 67 67 67 68
73 74 74 74 74 75 76 76 76 76 76 76 75 76 75 75 74 74 73 71 68 70 67 65 67 66 63 63 62 64 64 63 63 62 62 62 60 60 60 60 60 60 64 62 62 62 63 63 65 67 67 68 68 68 68 69 71 73 74 74 74 73 73 73 72 71 71 70 70 70 70 69 69 69 69 69 68 68 68 68 68 68 69 69 69
73 73 73 73 74 74 75 75 76 76 76 76 75 75 75 75 74 74 73 71 69 68 67 66 67 66 64 66 63 65 65 65 66 62 62 63 61 59 62 60 59 59 60 60 58 60 63 63 63 64 65 66 67 67 66 67 68 71 74 74 74 73 73 73 72 71 71 70 70 71 71 71 71 70 70 69 68 68 69 69 69 69 68 67 67
73 73 73 73 74 74 75 75 76 76 76 76 75 75 75 75 74 74 73 71 70 68 68 66 67 66 66 65 65 64 63 65 65 64 65 64 62 60 60 61 60 58 61 59 60 59 59 61 62 64 64 65 65 65 65 65 65 69 74 70 72 72 73 72 72 71 71 71 70 71 71 72 71 71 71 71 70 70 70 69 67 66 67 69 70
73 73 73 73 73 74 75 75 75 76 76 75 75 75 75 74 75 74 73 72 70 69 68 67 66 66 66 65 65 64 63 63 64 64 64 65 62 61 60 57 57 59 59 60 61 57 56 59 60 62 63 65 64 64 64 64 65 68 73 66 68 72 72 72 72 71 70 70 70 70 71 71 71 71 71 71 71 70 68 68 69 70 70 71 71
73 73 73 73 73 74 74 75 75 75 76 75 75 75 74 74 74 74 73 74 70 69 68 68 66 66 66 66 65 64 64 63 63 63 63 63 64 62 61 59 57 55 58 58 58 58 59 58 61 62 63 64 64 65 66 66 64 70 72 64 61 67 71 70 70 69 69 68 69 70 70 70 70 71 71 70 70 69 70 71 71 71 71 70 70
73 73 73 73 73 73 74 74 75 75 75 75 75 74 74 74 74 74 73 74 71 70 69 68 67 65 66 66 66 66 65 64 64 64 62 63 62 63 62 59 59 57 56 56 57 58 59 59 58 60 63 63 64 65 65 65 66 68 68 65 59 60 66 68 68 67 67 66 66 67 68 69 68 69 69 69 70 71 71 71 71 71 70 71 70
73 74 73 73 73 75 74 74 74 75 75 75 75 74 74 74 74 74 74 73 73 71 70 69 68 67 66 66 65 65 66 65 66 66 67 64 63 63 63 61 60 57 58 57 56 59 59 61 59 59 63 63 64 66 65 65 68 68 67 67 60 59 63 66 66 66 65 65 65 65 66 67 67 67 67 68 69 70 71 71 71 70 70 70 70
74 74 74 73 73 74 74 74 74 74 75 75 75 74 74 74 74 74 74 73 73 72 71 70 69 68 67 65 65 65 65 65 66 66 66 66 65 65 64 63 62 59 59 58 55 58 61 59 61 60 61 63 63 65 65 65 67 68 67 67 63 63 64 63 65 65 65 64 64 64 64 64 65 66 66 67 68 69 70 70 70 70 70 69 69
74 74 74 73 73 73 74 74 74 74 74 74 74 74 74 73 74 74 73 73 73 72 71 70 69 69 68 66 66 65 65 65 66 66 66 67 67 66 65 64 63 61 61 59 57 56 62 61 61 62 61 63 63 64 65 65 66 69 67 66 65 66 64 62 65 65 64 64 64 64 63 63 64 65 66 67 68 69 70 69 69 69 69 69 69
73 74 74 74 73 73 73 74 74 74 74 74 74 74 74 73 73 74 74 73 73 73 72 71 70 69 68 67 66 66 65 65 65 65 65 65 67 66 65 65 64 64 62 61 59 59 62 64 63 63 64 63 63 64 64 64 65 66 69 67 66 64 64 64 64 66 64 63 63 63 63 63 63 65 66 67 68 69 69 69 68 67 68 68 68
73 73 73 74 74 73 73 73 74 74 74 74 74 74 74 73 73 74 74 73 73 73 72 72 71 70 69 68 68 67 66 65 65 65 65 65 66 66 65 65 64 65 64 62 61 61 60 61 63 65 64 65 62 64 64 64 64 66 67 67 66 65 64 64 65 66 67 65 63 62 62 62 63 64 65 66 67 67 68 68 67 66 67 67 66
73 73 73 73 73 73 73 73 73 74 74 74 74 74 73 73 73 73 73 74 73 73 72 72 72 71 70 69 68 68 67 66 65 65 65 64 65 66 65 65 63 63 65 63 61 61 60 60 62 63 64 64 63 63 64 64 64 65 66 66 66 66 66 65 66 66 67 66 65 63 63 63 63 64 65 66 66 66 66 66 65 65 65 64 64
73 73 73 73 73 73 73 73 73 73 74 74 74 74 74 73 73 73 73 73 73 73 73 72 72 71 70 69 69 68 68 67 66 65 65 65 64 65 65 65 65 63 64 65 63 61 61 60 61 62 64 64 64 64 65 65 64 64 65 66 66 65 66 67 66 66 66 66 65 64 63 63 63 63 63 64 64 63 63 63 63 63 63 63 63
73 73 73 73 73 73 73 73 73 73 73 74 74 74 74 74 74 74 74 73 73 73 73 73 74 72 71 70 70 69 68 67 67 66 65 65 64 64 65 65 65 65 65 65 65 63 62 61 61 62 64 64 64 64 64 64 65 65 66 65 65 65 66 66 66 66 66 65 65 65 64 63 63 63 63 63 62 62 62 62 62 62 62 61 61
73 73 73 73 73 73 73 72 73 73 73 74 74 74 74 74 74 74 74 74 74 74 73 73 73 73 72 71 70 70 69 68 67 67 66 65 65 64 64 64 65 65 65 64 65 64 63 62 62 61 61 64 64 64 65 64 64 64 65 66 66 65 65 65 66 66 66 66 66 66 65 64 63 63 63 62 62 61 61 61 61 60 60 60 58
71 72 73 73 72 73 73 73 72 73 73 74 74 74 74 74 74 74 74 74 74 74 74 74 73 73 72 72 71 70 69 69 68 67 67 66 65 64 64 63 64 65 64 64 64 64 64 63 63 62 62 63 64 63 64 65 64 64 63 64 65 66 65 65 64 65 66 66 66 65 65 64 64 63 60 60 61 61 61 61 60 59 59 58 57
69 70 72 73 72 72 72 73 73 73 72 73 74 74 74 74 74 74 74 74 74 74 74 74 74 73 73 72 72 71 70 70 69 68 67 67 66 65 65 64 64 64 64 64 64 64 64 63 63 62 63 62 63 64 64 64 64 63 64 63 63 63 65 65 64 64 65 65 65 65 65 64 63 62 60 60 61 61 61 61 61 61 60 58 57
70 70 70 71 72 72 72 72 72 73 73 73 73 73 74 74 74 74 74 74 74 73 73 73 73 74 73 73 72 72 72 70 68 67 67 66 67 66 66 65 64 64 64 64 64 63 64 63 63 63 63 63 63 63 63 64 63 62 63 63 62 63 64 65 65 65 65 65 65 65 64 63 63 62 62 61 61 62 61 62 61 63 61 58 58
70 70 70 70 71 72 72 71 71 72 73 73 71 67 68 73 74 74 74 74 74 73 73 73 73 73 73 73 73 71 68 66 66 65 65 64 64 66 66 66 65 65 64 64 63 63 63 63 63 62 62 62 62 63 62 63 64 64 62 63 62 62 61 63 64 65 66 65 64 64 64 64 62 62 61 61 61 64 61 61 61 60 61 60 59
71 70 70 70 70 71 71 72 71 71 72 72 67 65 65 66 72 74 74 74 74 74 73 73 72 72 72 73 73 72 69 67 68 65 64 64 64 63 64 65 65 65 65 64 64 63 63 63 63 63 62 62 62 63 63 63 63 64 63 63 63 62 62 61 61 62 66 66 65 64 64 64 63 62 62 61 61 62 62 61 61 61 59 60 60
71 71 70 70 70 70 71 71 71 72 71 67 64 64 64 64 67 73 73 73 74 74 73 73 73 72 72 72 72 73 72 72 71 70 66 64 63 63 63 63 63 63 64 65 64 64 63 63 62 63 63 63 63 63 63 63 63 64 64 63 63 62 62 62 61 61 64 67 65 64 63 64 64 63 62 62 62 62 62 61 60 61 60 59 59
70 71 70 70 70 70 70 71 71 71 72 67 64 63 64 64 64 68 73 73 73 73 73 73 73 73 72 72 72 72 73 69 71 71 71 69 64 62 62 62 62 62 62 62 63 65 64 64 63 62 63 63 63 63 63 63 63 63 63 64 63 63 62 62 62 62 64 67 65 64 63 64 64 63 62 63 63 63 62 62 62 61 61 60 59
70 70 70 70 70 70 70 70 71 71 71 67 63 62 62 62 63 65 72 73 73 73 73 73 73 73 73 72 72 72 72 72 72 71 71 71 70 69 67 66 66 65 62 61 61 61 63 64 63 63 63 63 63 63 64 64 63 63 62 63 63 63 63 62 62 63 64 68 65 64 63 64 65 64 63 63 64 64 64 62 61 61 61 60 60
69 69 70 70 70 70 69 69 70 70 71 66 62 61 60 61 62 63 72 73 73 73 73 73 73 73 73 73 73 72 72 72 72 71 71 71 71 70 70 68 67 67 67 66 65 64 64 64 64 64 63 63 63 63 63 65 64 64 63 63 63 63 64 64 64 63 64 68 66 64 62 63 65 65 64 64 64 64 65 62 61 60 60 60 59
69 69 70 70 70 70 70 70 69 69 70 64 61 60 60 60 61 67 71 72 73 73 73 73 73 74 74 74 73 73 72 72 69 65 68 71 71 70 70 70 69 68 68 65 64 64 65 65 65 64 64 64 62 64 64 63 65 65 65 65 64 64 63 63 63 64 64 67 67 65 63 63 65 65 65 65 65 64 64 64 61 60 60 59 60
69 69 69 70 71 71 71 71 70 70 70 66 61 59 59 59 60 69 70 71 72 72 73 73 73 73 73 74 73 73 73 73 68 64 63 65 71 71 70 70 70 70 69 69 64 61 61 60 60 61 61 61 60 59 59 60 63 64 64 63 63 63 63 62 62 63 64 65 68 66 64 63 64 65 65 65 65 64 64 63 63 60 59 58 58
69 69 69 69 70 71 71 71 71 71 70 67 59 58 58 58 62 69 71 71 72 72 72 73 73 73 73 71 74 73 73 73 66 63 63 65 70 71 71 70 70 70 70 70 70 68 61 59 59 60 60 60 61 60 60 59 59 61 64 62 62 63 63 62 61 62 63 65 66 67 64 63 64 65 64 60 61 61 63 62 62 61 59 56 56
70 69 70 69 69 70 70 71 71 71 71 68 57 58 57 58 62 70 71 71 71 72 72 72 73 73 73 72 70 69 71 70 65 63 61 64 70 70 71 70 70 70 70 70 70 69 69 67 65 64 64 62 64 63 64 60 60 64 63 63 63 63 62 62 62 62 62 63 66 67 64 64 63 63 64 58 59 58 59 61 61 59 59 59 58